KB1FFS Weather Reports


time (UTC)temp
F
wind
direction
speed
knots
gust
knots
rain 1hr
in
rain 24hr
in
rain mn
in
humidity
%
barometer
mb
20260906223747 101 32 1.7 2.6 0.00 0.00 0.00 36 1012.0
20260906223242 100 188 0.9 2.6 0.00 0.00 0.00 37 1012.0
20260906222740 100 180 3.5 3.5 0.00 0.00 0.00 37 1012.1
20260906222239 101 182 1.7 3.5 0.00 0.00 0.00 36 1012.0
20260906221737 101 203 1.7 3.5 0.00 0.00 0.00 37 1012.2
20260906221232 101 185 1.7 3.5 0.00 0.00 0.00 36 1012.3
20260906220727 101 177 1.7 3.5 0.00 0.00 0.00 36 1012.2
20260906220222 101 203 1.7 4.3 0.00 0.00 0.00 37 1012.3
20260906215721 101 192 2.6 3.5 0.00 0.00 0.00 37 1012.2
20260906215221 101 121 0.9 2.6 0.00 0.00 0.00 37 1012.0
20260906214719 101 194 1.7 2.6 0.00 0.00 0.00 36 1012.1
20260906214215 101 201 1.7 2.6 0.00 0.00 0.00 38 1012.2
20260906213714 101 185 0.0 2.6 0.00 0.00 0.00 38 1012.4
20260906213208 102 162 0.0 3.5 0.00 0.00 0.00 37 1012.5
20260906212705 101 220 0.0 3.5 0.00 0.00 0.00 38 1012.7
20260906212201 100 192 1.7 3.5 0.00 0.00 0.00 38 1012.7
20260906211701 101 183 1.7 3.5 0.00 0.00 0.00 36 1012.8
20260906211156 102 165 3.5 3.5 0.00 0.00 0.00 36 1012.9
20260906210651 101 186 1.7 3.5 0.00 0.00 0.00 38 1012.9
20260906210151 100 63 0.0 2.6 0.00 0.00 0.00 38 1012.8
20260906205647 100 190 1.7 4.3 0.00 0.00 0.00 39 1013.3
20260906205143 100 174 1.7 3.5 0.00 0.00 0.00 37 1013.2
20260906204643 100 226 0.9 2.6 0.00 0.00 0.00 39 1013.1
20260906204138 99 201 2.6 3.5 0.00 0.00 0.00 39 1013.2
20260906203637 100 182 2.6 5.2 0.00 0.00 0.00 38 1013.2
20260906203132 100 186 2.6 4.3 0.00 0.00 0.00 38 1013.3
20260906202629 101 187 2.6 4.3 0.00 0.00 0.00 37 1013.4
20260906202128 101 192 1.7 3.5 0.00 0.00 0.00 38 1013.2
20260906201623 101 162 1.7 3.5 0.00 0.00 0.00 37 1013.4
20260906201122 101 185 2.6 4.3 0.00 0.00 0.00 37 1013.6
20260906200619 103 170 2.6 6.1 0.00 0.00 0.00 36 1013.6
20260906200114 102 0 0.0 1.7 0.00 0.00 0.00 36 1013.6
20260906195609 101 214 1.7 3.5 0.00 0.00 0.00 38 1013.7
20260906195106 101 167 1.7 4.3 0.00 0.00 0.00 38 1013.5
20260906194601 103 211 1.7 4.3 0.00 0.00 0.00 37 1013.8
20260906194057 102 203 0.0 0.9 0.00 0.00 0.00 38 1013.8
20260906193556 101 341 1.7 3.5 0.00 0.00 0.00 38 1013.7
20260906193052 100 187 2.6 6.1 0.00 0.00 0.00 38 1013.8
20260906192548 102 15 0.0 1.7 0.00 0.00 0.00 38 1014.1
20260906192046 102 211 1.7 2.6 0.00 0.00 0.00 38 1013.9
20260906191542 102 164 2.6 2.6 0.00 0.00 0.00 38 1013.9
20260906191041 101 285 0.0 3.5 0.00 0.00 0.00 39 1014.0
20260906190540 101 339 1.7 4.3 0.00 0.00 0.00 39 1014.3
20260906190036 101 334 1.7 2.6 0.00 0.00 0.00 39 1014.1
20260906185534 101 186 3.5 6.1 0.00 0.00 0.00 39 1014.3
20260906185033 101 209 0.0 1.7 0.00 0.00 0.00 40 1014.0
20260906184529 101 347 2.6 3.5 0.00 0.00 0.00 39 1014.3
20260906184024 101 183 1.7 2.6 0.00 0.00 0.00 40 1014.4
20260906183520 100 189 1.7 2.6 0.00 0.00 0.00 40 1014.4
20260906183015 100 164 1.7 4.3 0.00 0.00 0.00 40 1014.5
20260906182510 100 171 1.7 2.6 0.00 0.00 0.00 41 1014.4
20260906182007 100 190 3.5 4.3 0.00 0.00 0.00 41 1014.7
20260906181502 100 188 1.7 3.5 0.00 0.00 0.00 41 1014.6
20260906180957 100 175 3.5 4.3 0.00 0.00 0.00 42 1014.9
20260906180452 99 343 1.7 3.5 0.00 0.00 0.00 45 1014.9
20260906175950 100 168 3.5 5.2 0.00 0.00 0.00 41 1014.9
20260906175445 100 162 1.7 4.3 0.00 0.00 0.00 40 1015.0
20260906174944 100 173 2.6 4.3 0.00 0.00 0.00 41 1015.1
20260906174443 99 176 1.7 2.6 0.00 0.00 0.00 44 1015.3
20260906173938 98 200 1.7 2.6 0.00 0.00 0.00 43 1015.2
20260906173433 98 158 3.5 4.3 0.00 0.00 0.00 41 1015.4
20260906172933 100 216 0.9 3.5 0.00 0.00 0.00 44 1015.6
20260906172430 99 170 1.7 3.5 0.00 0.00 0.00 42 1015.5
20260906171924 98 312 0.0 3.5 0.00 0.00 0.00 45 1015.4
20260906171419 98 165 1.7 3.5 0.00 0.00 0.00 44 1015.3
20260906170915 98 190 2.6 2.6 0.00 0.00 0.00 45 1015.6
20260906170411 98 175 1.7 4.3 0.00 0.00 0.00 45 1015.7
20260906165907 99 186 3.5 4.3 0.00 0.00 0.00 44 1015.6
20260906165406 98 323 1.7 1.7 0.00 0.00 0.00 45 1015.9
20260906164901 98 287 0.9 2.6 0.00 0.00 0.00 45 1015.9
20260906164400 98 191 3.5 3.5 0.00 0.00 0.00 45 1015.7
20260906163856 97 39 3.5 3.5 0.00 0.00 0.00 46 1015.8
20260906163353 96 177 1.7 2.6 0.00 0.00 0.00 48 1015.9
20260906162850 96 159 2.6 3.5 0.00 0.00 0.00 47 1016.0
20260906162349 96 188 1.7 4.3 0.00 0.00 0.00 47 1015.7
20260906161844 96 178 0.9 2.6 0.00 0.00 0.00 49 1016.1
20260906161344 96 333 0.0 2.6 0.00 0.00 0.00 48 1016.1
20260906160843 96 175 0.9 1.7 0.00 0.00 0.00 48 1016.1
20260906160337 95 324 0.0 2.6 0.00 0.00 0.00 48 1015.8
20260906155835 95 179 0.9 2.6 0.00 0.00 0.00 50 1015.9
20260906155329 95 196 0.0 2.6 0.00 0.00 0.00 50 1016.0
20260906154825 95 155 0.9 2.6 0.00 0.00 0.00 52 1015.8
20260906154320 95 167 0.0 1.7 0.00 0.00 0.00 54 1016.0
20260906153819 94 163 2.6 3.5 0.00 0.00 0.00 52 1015.7
20260906153318 94 156 2.6 3.5 0.00 0.00 0.00 53 1015.8
20260906152813 93 134 1.7 2.6 0.00 0.00 0.00 55 1015.7
20260906152308 93 12 0.0 3.5 0.00 0.00 0.00 56 1015.7
20260906151808 93 149 0.9 1.7 0.00 0.00 0.00 56 1015.7
20260906151303 92 13 0.9 1.7 0.00 0.00 0.00 56 1015.5
20260906150759 91 169 0.9 1.7 0.00 0.00 0.00 57 1015.5
20260906150254 91 89 0.0 0.9 0.00 0.00 0.00 59 1015.6
20260906145753 90 185 0.9 1.7 0.00 0.00 0.00 59 1015.3
20260906145251 90 160 1.7 2.6 0.00 0.00 0.00 61 1015.4
20260906144747 89 186 0.0 1.7 0.00 0.00 0.00 62 1015.3
20260906144242 89 151 1.7 2.6 0.00 0.00 0.00 63 1015.3
20260906143741 88 33 0.9 0.9 0.00 0.00 0.00 63 1015.6
20260906143239 87 149 1.7 2.6 0.00 0.00 0.00 65 1015.3
20260906142738 86 141 0.0 3.5 0.00 0.00 0.00 67 1015.5
20260906142233 85 178 1.7 2.6 0.00 0.00 0.00 69 1015.5
20260906141732 85 173 0.9 3.5 0.00 0.00 0.00 69 1015.2
20260906141227 84 175 1.7 2.6 0.00 0.00 0.00 70 1015.5
20260906140727 84 85 0.0 1.7 0.00 0.00 0.00 71 1015.4
20260906140221 84 99 0.0 1.7 0.00 0.00 0.00 71 1015.5
20260906135718 84 168 0.0 2.6 0.00 0.00 0.00 72 1015.5
20260906135214 83 158 1.7 2.6 0.00 0.00 0.00 72 1015.7
20260906134709 83 147 0.9 1.7 0.00 0.00 0.00 73 1015.6
20260906134205 83 174 0.9 1.7 0.00 0.00 0.00 73 1015.5
20260906133700 82 169 0.0 2.6 0.00 0.00 0.00 74 1015.8
20260906133155 82 158 0.0 2.6 0.00 0.00 0.00 74 1015.7
20260906132651 82 180 1.7 2.6 0.00 0.00 0.00 76 1015.5
20260906132146 81 86 0.0 1.7 0.00 0.00 0.00 76 1015.5
20260906131642 81 162 0.0 1.7 0.00 0.00 0.00 78 1015.5
20260906131137 80 109 0.0 1.7 0.00 0.00 0.00 78 1015.6
20260906130632 80 150 0.9 1.7 0.00 0.00 0.00 80 1015.5
20260906130127 79 116 0.0 1.7 0.00 0.00 0.00 81 1015.4
20260906125625 78 136 0.9 1.7 0.00 0.00 0.00 82 1015.4
20260906125123 78 130 1.7 1.7 0.00 0.00 0.00 83 1015.3
20260906124619 78 113 1.7 1.7 0.00 0.00 0.00 83 1015.2
20260906124114 77 140 0.9 1.7 0.00 0.00 0.00 84 1015.2
20260906123614 77 148 0.0 1.7 0.00 0.00 0.00 84 1015.2
20260906123109 77 131 0.9 1.7 0.00 0.00 0.00 85 1015.3
20260906122608 77 111 0.9 1.7 0.00 0.00 0.00 85 1015.1
20260906122104 77 89 0.0 0.9 0.00 0.00 0.00 85 1015.1
20260906121600 77 93 0.9 1.7 0.00 0.00 0.00 85 1014.9
20260906121056 77 77 1.7 1.7 0.00 0.00 0.00 85 1014.8
20260906120551 77 66 0.9 1.7 0.00 0.00 0.00 85 1014.9
20260906120049 77 163 0.9 1.7 0.00 0.00 0.00 85 1014.9
20260906115548 77 113 0.0 0.9 0.00 0.00 0.00 84 1014.7
20260906115044 77 164 0.0 1.7 0.00 0.00 0.00 83 1014.8
20260906114543 77 39 0.0 1.7 0.00 0.00 0.00 83 1014.7
20260906114039 78 146 0.0 1.7 0.00 0.00 0.00 82 1014.8
20260906113538 78 96 0.0 1.7 0.00 0.00 0.00 83 1014.8
20260906113033 78 120 0.9 1.7 0.00 0.00 0.00 83 1014.6
20260906112528 78 109 0.0 1.7 0.00 0.00 0.00 83 1014.4
20260906112025 78 124 0.0 0.9 0.00 0.00 0.00 81 1014.6
20260906111524 78 89 0.0 0.9 0.00 0.00 0.00 80 1014.6
20260906111020 78 117 0.0 0.0 0.00 0.00 0.00 81 1014.4
20260906110514 78 143 0.9 1.7 0.00 0.00 0.00 81 1014.6
20260906110014 78 129 0.0 0.9 0.00 0.00 0.00 80 1014.6
20260906105509 79 121 0.0 0.9 0.00 0.00 0.00 80 1014.3
20260906105005 79 84 0.0 0.9 0.00 0.00 0.00 80 1014.4
20260906104503 79 118 0.0 0.9 0.00 0.00 0.00 80 1014.3
20260906104003 79 130 0.0 0.9 0.00 0.00 0.00 79 1014.3
20260906103501 79 75 0.0 0.9 0.00 0.00 0.00 79 1014.1
20260906102956 79 127 0.0 0.9 0.00 0.00 0.00 80 1014.4
20260906102451 80 93 0.9 1.7 0.00 0.00 0.00 80 1014.1
20260906101951 80 135 0.0 0.9 0.00 0.00 0.00 77 1014.1
20260906101446 80 129 0.0 0.9 0.00 0.00 0.00 77 1014.3
20260906100946 80 117 0.0 0.9 0.00 0.00 0.00 77 1014.2
20260906100441 80 119 0.9 0.9 0.00 0.00 0.00 76 1014.2
20260906095936 80 104 0.0 0.0 0.00 0.00 0.00 76 1014.2
20260906095431 80 102 0.9 0.9 0.00 0.00 0.00 76 1013.9
20260906094926 80 104 0.0 0.0 0.00 0.00 0.00 75 1014.0
20260906094420 81 103 0.0 0.9 0.00 0.00 0.00 74 1013.9
20260906093911 81 114 0.0 0.9 0.00 0.00 0.00 73 1014.0
20260906093407 81 104 0.0 0.9 0.00 0.00 0.00 73 1013.8
20260906092907 81 119 0.0 0.9 0.00 0.00 0.00 73 1013.7
20260906092406 82 104 0.0 0.9 0.00 0.00 0.00 73 1013.6
20260906091902 82 104 0.0 0.0 0.00 0.00 0.00 73 1013.7
20260906091358 82 117 0.0 0.9 0.00 0.00 0.00 72 1013.6
20260906090854 82 99 0.0 1.7 0.00 0.00 0.00 72 1013.8
20260906090353 82 62 0.0 0.9 0.00 0.00 0.00 72 1013.6
20260906085848 82 124 0.0 1.7 0.00 0.00 0.00 71 1013.7
20260906085347 82 143 0.9 1.7 0.00 0.00 0.00 71 1013.5
20260906084842 83 129 0.0 0.9 0.00 0.00 0.00 71 1013.6
20260906084342 83 156 0.0 1.7 0.00 0.00 0.00 71 1013.6
20260906083836 83 99 0.9 2.6 0.00 0.00 0.00 71 1013.7
20260906083333 83 142 0.0 1.7 0.00 0.00 0.00 71 1013.6
20260906082832 83 151 0.9 1.7 0.00 0.00 0.00 70 1013.7
20260906082327 83 139 0.9 1.7 0.00 0.00 0.00 70 1013.5
20260906081823 83 124 0.0 1.7 0.00 0.00 0.00 70 1013.4
20260906081319 83 155 0.9 1.7 0.00 0.00 0.00 70 1013.4
20260906080815 83 122 1.7 1.7 0.00 0.00 0.00 70 1013.3
20260906080311 83 140 0.0 1.7 0.00 0.00 0.00 69 1013.3
20260906075810 84 58 0.0 1.7 0.00 0.00 0.00 69 1013.4
20260906075310 84 147 0.0 0.9 0.00 0.00 0.00 69 1013.5
20260906074805 84 145 0.0 1.7 0.00 0.00 0.00 68 1013.7
20260906074305 84 89 0.0 1.7 0.00 0.00 0.00 68 1013.8
20260906073804 84 132 0.9 1.7 0.00 0.00 0.00 68 1013.7
20260906073259 84 141 0.0 2.6 0.00 0.00 0.00 68 1013.8
20260906072755 84 130 0.9 1.7 0.00 0.00 0.00 68 1013.9
20260906072250 84 78 0.9 2.6 0.00 0.00 0.00 68 1014.0
20260906071746 84 149 0.9 2.6 0.00 0.00 0.00 68 1013.9
20260906071246 84 126 0.0 0.9 0.00 0.00 0.00 69 1013.9
20260906070743 84 141 0.9 1.7 0.00 0.00 0.00 69 1014.0
20260906070238 84 140 0.9 0.9 0.00 0.00 0.00 68 1013.8
20260906065738 84 142 0.0 0.9 0.00 0.00 0.00 69 1014.0
20260906065233 84 135 0.0 1.7 0.00 0.00 0.00 69 1013.9
20260906064728 84 117 0.0 0.9 0.00 0.00 0.00 68 1013.8
20260906064224 84 110 0.0 1.7 0.00 0.00 0.00 68 1013.9
20260906063719 84 114 0.0 1.7 0.00 0.00 0.00 68 1014.2
20260906063215 84 131 0.0 1.7 0.00 0.00 0.00 68 1013.8
20260906062711 85 142 0.0 1.7 0.00 0.00 0.00 68 1014.0
20260906062210 85 116 0.0 0.9 0.00 0.00 0.00 67 1013.8
20260906061705 85 104 0.0 1.7 0.00 0.00 0.00 67 1013.9
20260906061200 84 135 0.0 0.9 0.00 0.00 0.00 68 1013.9
20260906060657 84 117 0.0 0.9 0.00 0.00 0.00 68 1014.1
20260906060153 84 50 0.0 0.9 0.00 0.00 0.00 68 1014.0
20260906055649 85 117 0.0 0.9 0.00 0.00 0.00 69 1014.0
20260906055144 85 127 0.0 1.7 0.00 0.00 0.00 66 1014.1
20260906054639 85 129 0.0 0.9 0.00 0.00 0.00 66 1013.9
20260906054134 85 117 0.0 0.9 0.00 0.00 0.00 67 1014.1
20260906053631 86 143 0.0 0.9 0.00 0.00 0.00 65 1014.0
20260906053125 86 114 0.0 1.7 0.00 0.00 0.00 64 1014.0
20260906052621 86 154 0.0 0.9 0.00 0.00 0.00 64 1014.2
20260906052118 86 124 0.9 0.9 0.00 0.00 0.00 63 1014.2
20260906051614 87 118 0.0 1.7 0.00 0.00 0.00 63 1014.3
20260906051108 87 84 0.9 1.7 0.00 0.00 0.00 62 1014.1
20260906050604 87 127 0.0 0.9 0.00 0.00 0.00 62 1014.2
20260906050059 87 135 0.0 1.7 0.00 0.00 0.00 62 1014.1
20260906045557 87 154 0.0 1.7 0.00 0.00 0.00 62 1014.1
20260906045053 87 109 0.9 1.7 0.00 0.00 0.00 62 1014.0
20260906044548 87 132 0.9 0.9 0.00 0.00 0.00 62 1014.0
20260906044044 87 139 0.0 1.7 0.00 0.00 0.00 62 1013.9
20260906043539 87 89 0.0 0.9 0.00 0.00 0.00 60 1014.0
20260906043036 87 89 0.0 0.0 0.00 0.00 0.00 60 1013.9
20260906042534 88 160 0.0 1.7 0.00 0.00 0.00 60 1013.9
20260906042029 88 146 0.0 0.9 0.00 0.00 0.00 59 1013.9
20260906041525 88 108 0.0 1.7 0.00 0.00 0.00 59 1013.9
20260906041025 88 242 0.0 2.6 0.00 0.00 0.00 59 1013.8
20260906040520 88 113 0.0 1.7 0.00 0.00 0.00 58 1013.8
20260906040016 88 199 0.9 2.6 0.00 0.00 0.00 58 1013.6
20260906035511 88 137 0.0 1.7 0.00 0.00 0.00 58 1013.8
20260906035007 88 155 2.6 2.6 0.00 0.00 0.00 57 1013.8
20260906034506 89 142 0.0 1.7 0.00 0.00 0.00 57 1013.9
20260906034001 89 166 0.0 3.5 0.00 0.00 0.00 57 1014.0
20260906033456 89 152 2.6 2.6 0.00 0.00 0.00 56 1013.8
20260906032952 89 197 0.0 1.7 0.00 0.00 0.00 56 1013.9
20260906032449 89 156 0.0 1.7 0.00 0.00 0.00 56 1013.9
20260906031948 89 172 0.0 3.5 0.00 0.00 0.00 55 1013.8
20260906031444 89 343 0.0 2.6 0.00 0.00 0.00 55 1013.7
20260906030939 90 129 0.0 1.7 0.00 0.00 0.00 55 1013.9
20260906030433 90 158 2.6 3.5 0.00 0.00 0.00 54 1013.9
20260906025928 90 13 0.0 3.5 0.00 0.00 0.00 54 1014.0
20260906025428 90 163 3.5 4.3 0.00 0.00 0.00 53 1014.0
20260906024927 90 164 2.6 5.2 0.00 0.00 0.00 53 1013.9
20260906024426 90 194 0.0 1.7 0.00 0.00 0.00 54 1013.5
20260906023922 90 352 0.0 1.7 0.00 0.00 0.00 54 1013.5
20260906023419 90 159 1.7 3.5 0.00 0.00 0.00 53 1013.3
20260906022918 91 167 0.9 3.5 0.00 0.00 0.00 53 1013.4
20260906022413 91 175 1.7 1.7 0.00 0.00 0.00 52 1013.3
20260906021908 91 221 0.9 2.6 0.00 0.00 0.00 52 1013.2
20260906021409 91 169 1.7 2.6 0.00 0.00 0.00 51 1013.2
20260906020903 92 150 1.7 5.2 0.00 0.00 0.00 50 1013.2
20260906020403 92 165 1.7 3.5 0.00 0.00 0.00 50 1012.9
20260906015857 92 185 2.6 2.6 0.00 0.00 0.00 49 1013.0
20260906015357 93 177 1.7 2.6 0.00 0.00 0.00 49 1012.9
20260906014857 93 168 0.9 6.1 0.00 0.00 0.00 47 1012.6
20260906014356 94 164 0.9 4.3 0.00 0.00 0.00 45 1012.6
20260906013853 94 170 3.5 6.1 0.00 0.00 0.00 44 1012.7
20260906013348 94 187 1.7 1.7 0.00 0.00 0.00 42 1012.3
20260906012843 94 185 0.0 0.9 0.00 0.00 0.00 43 1012.4
20260906012338 95 167 0.9 1.7 0.00 0.00 0.00 42 1012.3
20260906011838 95 184 0.0 1.7 0.00 0.00 0.00 41 1012.1
20260906011333 95 189 1.7 1.7 0.00 0.00 0.00 41 1011.8
20260906010829 95 176 0.9 1.7 0.00 0.00 0.00 40 1011.9
20260906010325 95 164 1.7 1.7 0.00 0.00 0.00 40 1012.1
20260906005820 95 164 0.9 1.7 0.00 0.00 0.00 40 1012.0
20260906005319 96 180 1.7 1.7 0.00 0.00 0.00 39 1012.1
20260906004818 96 151 0.0 1.7 0.00 0.00 0.00 40 1012.1
20260906004318 96 153 0.0 1.7 0.00 0.00 0.00 40 1011.9
20260906003813 96 180 1.7 1.7 0.00 0.00 0.00 39 1011.9
20260906003308 96 188 0.0 1.7 0.00 0.00 0.00 39 1012.1
20260906002804 97 198 1.7 1.7 0.00 0.00 0.00 38 1012.0
20260906002306 97 190 0.9 2.6 0.00 0.00 0.00 37 1012.0
20260906001759 97 190 2.6 2.6 0.00 0.00 0.00 37 1012.0
20260906001254 98 157 0.9 3.5 0.00 0.00 0.00 37 1011.9
20260906000750 98 187 1.7 2.6 0.00 0.00 0.00 37 1011.9
20260906000249 98 188 1.7 2.6 0.00 0.00 0.00 36 1011.8
20260905235745 99 181 0.0 2.6 0.00 0.00 0.00 37 1011.8
20260905235244 100 180 2.6 2.6 0.00 0.00 0.00 36 1011.9
20260905234740 100 198 0.9 2.6 0.00 0.00 0.00 35 1011.6
20260905234235 101 197 0.9 2.6 0.00 0.00 0.00 35 1011.7
20260905233730 101 163 1.7 1.7 0.00 0.00 0.00 35 1011.8
20260905233229 100 201 0.0 1.7 0.00 0.00 0.00 35 1011.8
20260905232724 100 177 0.9 3.5 0.00 0.00 0.00 35 1011.9
20260905232220 101 211 2.6 3.5 0.00 0.00 0.00 35 1011.7
20260905231716 101 181 1.7 2.6 0.00 0.00 0.00 35 1011.8
20260905231211 101 201 0.0 3.5 0.00 0.00 0.00 36 1011.9
20260905230708 101 192 3.5 3.5 0.00 0.00 0.00 36 1011.7
20260905230205 101 189 3.5 3.5 0.00 0.00 0.00 35 1011.7
20260905225704 101 197 1.7 3.5 0.00 0.00 0.00 35 1011.5
20260905225200 102 195 2.6 4.3 0.00 0.00 0.00 34 1011.6
20260905224659 102 169 0.9 2.6 0.00 0.00 0.00 34 1011.8
20260905224154 102 193 0.0 1.7 0.00 0.00 0.00 35 1011.8